GFSNW_sfc_temp_003.txt.gz
Temp
59 59 60 60 59 56 53 48 46 63 64 48 46 43 52 57 58 61 58 59 56 53 53 52 52 52 57 61 58 55 60 54 48 53 55 60 59 55 55 43 37 43 47 48
59 59 59 59 58 56 46 42 47 61 60 40 41 49 54 56 56 55 55 53 56 56 50 44 50 51 55 52 53 50 51 49 44 48 48 50 48 54 54 56 45 46 43 48
59 58 58 58 58 57 48 43 40 48 51 49 44 45 46 48 55 54 56 54 55 52 49 52 47 46 52 53 52 55 54 49 47 42 49 51 45 50 54 51 45 47 48 52
59 59 58 58 58 57 48 44 41 43 36 40 41 41 44 44 44 52 53 49 49 45 43 46 43 48 50 52 54 47 45 39 42 41 43 46 50 54 53 50 52 47 52 52
59 59 58 58 57 56 46 41 39 41 38 40 39 41 39 43 46 45 44 42 46 46 40 43 40 44 42 41 45 45 45 34 36 34 40 40 38 44 47 54 55 54 55 55
59 59 58 57 56 54 43 45 47 47 43 37 35 37 42 43 46 47 49 47 44 42 45 48 47 46 47 46 42 40 39 37 34 29 40 37 31 42 48 52 58 57 49 57
59 59 59 58 57 54 46 45 43 38 37 38 39 43 44 42 44 40 46 48 43 48 51 49 47 44 45 44 43 44 38 36 36 29 34 25 43 53 53 52 56 60 60 62
59 58 59 59 57 56 47 47 46 42 36 40 40 42 42 43 44 42 43 47 50 48 45 37 33 35 37 41 45 44 43 38 33 30 31 38 44 50 49 41 41 55 57 62
59 58 58 58 58 56 48 46 47 44 38 39 43 41 41 36 36 38 43 48 51 46 39 34 20 26 32 30 37 46 43 40 35 34 28 25 42 48 52 48 37 45 45 49
58 58 58 58 57 57 51 46 49 42 38 43 43 39 40 43 42 38 42 41 41 43 34 30 26 27 36 27 30 31 31 31 30 31 30 34 46 51 50 35 35 43 44 46
58 58 58 58 57 57 50 47 49 43 40 44 47 47 42 42 42 36 41 39 39 34 30 29 27 26 31 31 33 31 30 28 27 28 27 24 47 47 40 42 43 44 44 45
58 58 58 57 57 57 55 46 51 51 43 43 50 51 52 50 49 43 42 41 40 42 33 32 31 27 29 31 26 39 27 35 31 32 34 45 49 48 50 47 46 46 45 46
57 57 57 57 57 57 54 45 47 46 42 42 42 42 50 55 54 55 40 43 45 42 44 38 35 30 32 28 30 31 37 39 34 34 42 43 46 51 53 51 48 52 49 48
57 57 57 57 56 56 55 45 47 44 41 35 40 54 49 56 54 53 52 49 49 46 42 38 35 32 37 32 33 33 38 36 35 34 41 44 47 49 51 51 52 55 54 51
56 56 56 56 55 55 52 48 49 49 41 33 37 46 50 52 49 50 51 49 46 42 38 36 33 36 36 35 31 31 40 37 31 33 44 42 45 50 53 52 53 55 54 53
56 56 56 55 55 55 46 41 45 48 48 39 32 41 43 46 49 47 47 47 45 43 38 37 38 42 37 31 30 41 44 45 46 42 47 46 48 51 53 53 53 55 55 56
56 55 55 55 55 49 43 41 44 52 49 38 31 29 40 45 44 43 43 43 40 42 39 37 38 38 39 33 29 41 43 45 46 47 47 43 48 47 53 54 55 56 56 57
56 55 55 54 54 52 46 51 52 52 44 42 32 32 34 42 36 34 41 39 40 40 38 37 35 37 36 29 39 41 44 45 45 46 48 47 50 51 52 54 54 52 52 55
55 54 53 47 47 43 44 52 52 46 43 34 32 29 28 41 38 39 38 39 34 37 35 35 36 33 30 34 37 41 44 44 45 47 48 47 44 44 46 47 48 46 48 51
53 47 45 37 42 51 50 42 37 39 37 35 32 36 31 35 35 34 34 35 32 30 31 37 33 33 42 44 45 45 45 45 45 41 39 40 39 40 42 43 46 46 48 49
44 39 38 42 49 40 40 36 33 34 30 35 33 32 33 37 33 33 35 32 31 25 28 27 27 27 36 40 41 44 44 45 44 43 43 42 42 43 42 43 45 46 47 47
43 43 45 43 39 36 33 32 34 28 31 35 35 32 33 33 37 35 35 31 32 25 32 30 24 33 39 42 44 44 44 45 43 44 43 44 45 45 44 44 44 45 46 47
45 40 37 36 33 25 29 20 25 24 32 33 33 31 36 34 35 33 32 29 28 31 24 26 28 35 40 41 44 44 45 42 42 43 43 44 43 46 44 43 44 45 45 47
34 34 24 32 28 33 28 29 29 35 35 35 36 34 33 32 33 33 28 33 28 19 18 23 32 38 41 41 41 41 42 43 42 42 42 42 42 41 41 42 43 43 44 45
34 35 25 28 32 32 33 34 33 35 40 34 30 31 33 30 30 32 30 26 20 24 24 31 38 40 40 37 41 41 43 44 42 43 41 40 37 39 40 40 43 45 44 44
35 34 31 32 30 29 30 31 32 36 34 33 31 31 29 27 27 25 25 25 25 29 34 37 39 40 40 37 41 41 45 43 42 42 39 38 38 37 37 40 40 41 44 44
33 32 37 36 35 33 35 37 36 39 36 31 30 24 24 29 26 22 26 23 29 33 36 38 38 38 39 40 41 41 41 40 39 37 38 37 37 37 37 34 37 38 38 38

GFSNW_sfc_temp_006.txt.gz
Temp
59 59 59 59 58 56 50 45 45 61 61 47 40 41 50 54 54 56 54 53 50 47 48 45 46 48 52 53 51 45 50 44 40 47 58 60 58 54 53 44 41 36 45 47
58 58 59 59 57 56 48 41 42 56 57 39 38 45 49 52 50 50 51 50 51 51 46 42 46 48 54 53 50 45 48 42 36 41 48 49 45 49 52 51 51 45 41 46
59 58 58 58 58 57 46 42 39 44 44 42 38 37 40 43 51 49 49 48 48 44 42 46 42 45 51 51 52 55 49 42 39 34 36 36 35 36 42 39 41 45 46 50
59 58 58 58 57 56 47 41 37 39 33 36 35 36 39 40 40 46 46 43 43 40 35 39 39 42 45 48 52 47 46 35 39 38 42 42 39 38 36 34 36 32 38 45
59 58 58 58 57 55 44 38 37 39 35 37 35 37 35 39 41 41 40 38 42 42 36 38 35 40 40 39 44 42 41 33 39 35 40 39 37 39 40 38 40 40 45 45
59 58 58 57 56 52 41 42 43 40 38 34 32 33 38 40 42 43 45 42 40 38 42 44 45 44 43 42 40 39 38 35 29 28 38 38 31 39 40 43 47 44 36 42
59 59 58 58 56 52 45 43 45 39 32 36 36 40 41 39 41 38 43 44 39 44 49 47 45 42 43 43 43 43 36 35 33 27 32 21 40 50 49 46 48 46 44 44
59 58 58 58 57 56 45 45 42 37 31 38 40 39 39 40 41 39 40 44 47 45 43 36 30 34 33 37 43 41 39 37 31 27 24 34 39 47 45 40 39 44 41 41
58 58 58 58 57 56 46 44 45 40 37 36 42 40 39 34 35 38 39 46 47 46 38 31 21 24 29 27 34 42 41 40 32 26 16 18 38 46 50 47 32 43 44 42
58 58 58 58 57 56 48 45 46 44 38 43 41 36 35 40 39 37 41 43 39 41 35 30 27 25 33 24 27 29 29 30 27 28 25 31 42 45 48 31 34 44 46 46
58 58 58 58 57 57 48 45 47 44 40 43 46 45 40 39 39 34 40 38 38 35 30 30 26 25 29 27 31 27 27 27 26 29 24 20 44 46 36 40 45 45 47 48
58 58 57 57 57 57 54 42 48 48 42 43 48 48 50 47 46 41 40 39 38 40 34 33 32 28 26 28 24 35 26 32 30 30 29 40 45 46 47 47 45 45 46 48
57 57 57 57 57 56 53 44 44 44 39 38 40 39 49 52 51 52 37 40 42 41 43 38 35 30 28 27 29 30 34 39 34 31 38 43 46 49 48 48 45 48 50 49
57 57 57 56 56 55 55 46 44 44 41 34 38 51 45 52 52 51 50 46 47 45 40 37 34 31 35 29 33 30 36 36 36 35 40 43 45 46 45 46 48 49 50 50
56 56 56 56 56 55 52 48 49 48 41 31 36 44 49 48 47 47 48 47 44 39 37 36 33 36 35 34 34 32 39 37 33 32 41 41 42 47 48 46 47 49 49 50
56 56 56 56 55 54 47 41 43 46 48 39 31 39 41 47 46 45 44 44 43 41 36 37 39 42 36 31 29 40 43 44 44 40 46 45 46 47 48 47 48 49 50 52
56 55 55 55 55 48 43 39 43 50 47 39 33 28 38 41 42 39 38 41 38 40 37 36 37 38 38 32 29 41 44 45 45 43 43 41 44 43 48 49 49 51 51 53
56 55 55 54 53 51 46 49 52 53 43 41 32 31 31 39 34 34 42 36 38 39 38 37 36 37 36 29 38 40 42 41 40 42 43 43 46 46 46 47 46 45 46 48
55 54 53 47 44 40 44 52 51 48 42 33 33 29 27 36 34 38 38 38 33 38 35 35 35 31 29 34 35 37 40 38 40 42 44 44 42 43 43 43 43 42 44 45
53 47 41 35 41 50 48 41 39 39 38 36 32 36 30 33 35 33 34 35 32 29 32 36 33 31 38 41 43 43 42 43 43 41 42 42 41 41 42 42 44 43 43 45
43 37 36 42 48 39 40 35 33 33 31 33 33 32 32 34 32 33 36 31 30 26 27 27 26 26 32 38 40 43 45 44 44 44 43 41 41 40 40 41 42 43 44 44
42 42 44 43 39 35 30 28 31 27 25 34 33 31 31 32 35 34 34 31 32 25 30 28 24 29 36 39 42 44 44 44 43 43 41 42 43 42 41 41 41 42 44 44
43 40 37 35 33 25 26 17 22 21 30 31 30 30 32 33 35 33 32 28 25 29 26 26 27 33 37 39 41 42 43 42 41 40 40 43 43 43 42 40 42 40 41 43
37 33 28 30 26 27 26 26 28 32 32 35 35 31 31 30 32 33 28 29 30 22 19 23 32 36 39 40 41 40 39 41 40 41 42 41 41 40 39 39 40 40 39 40
35 34 27 28 32 30 31 31 31 33 34 32 28 28 30 29 30 31 30 26 22 22 21 27 36 38 37 36 38 38 39 40 40 40 39 38 39 38 39 40 39 38 40 43
35 33 31 33 29 27 28 29 29 36 37 35 30 31 29 27 28 26 22 20 19 28 32 36 36 35 36 37 38 39 41 41 40 37 37 37 37 36 35 36 37 38 40 41
32 31 36 35 35 28 29 30 33 38 35 28 29 24 24 28 26 24 23 26 30 33 35 37 37 35 35 37 38 39 41 38 36 34 34 35 37 35 35 33 34 35 37 37

GFSNW_sfc_temp_009.txt.gz
Temp
58 59 59 59 58 56 50 46 44 58 58 46 38 39 45 51 50 52 51 49 47 43 43 41 43 44 48 51 51 43 48 43 37 43 53 57 54 49 44 39 37 37 42 44
58 58 58 58 57 55 46 41 42 53 54 37 35 40 45 48 47 47 47 45 46 45 42 37 42 41 50 50 48 45 46 40 31 36 43 42 37 41 42 38 35 32 32 40
58 58 58 58 57 56 45 41 39 42 42 38 35 33 37 41 47 45 45 44 45 41 38 42 38 39 46 48 47 53 49 39 35 29 35 40 37 41 43 38 29 30 31 34
59 58 58 58 57 56 46 39 35 37 32 34 33 33 36 37 38 43 43 40 40 37 32 35 35 39 41 45 48 45 41 32 36 38 40 40 39 39 39 36 35 29 35 39
59 58 58 57 56 54 42 37 36 37 33 34 32 34 32 37 38 38 37 37 39 38 33 35 32 37 37 36 41 40 39 32 36 31 37 37 34 39 39 38 39 39 39 35
58 58 57 57 55 51 40 40 41 38 36 32 30 31 36 38 38 40 42 40 37 35 38 42 42 42 42 41 37 36 35 32 28 25 34 33 28 35 37 40 43 42 35 41
59 58 58 57 56 51 43 42 40 34 31 33 35 38 39 38 38 35 41 41 36 42 47 44 43 40 39 40 40 41 34 32 31 27 30 20 35 44 43 40 44 45 44 41
58 58 58 58 57 54 45 43 40 35 29 35 36 38 38 38 39 37 38 42 44 46 40 34 30 30 31 35 38 38 37 31 27 22 24 31 36 41 39 37 37 41 35 43
58 58 58 58 57 55 44 43 44 42 37 32 40 36 35 32 33 36 38 44 46 41 37 33 25 23 28 26 32 38 37 34 27 26 21 18 34 42 44 43 29 44 46 43
58 58 58 58 57 56 47 43 45 44 37 39 38 36 33 39 39 35 40 40 37 38 30 27 25 25 31 25 26 28 27 26 23 23 19 28 39 42 43 28 30 44 46 45
58 58 58 57 57 57 47 43 46 43 38 40 43 44 38 37 36 33 37 35 36 31 24 25 24 27 28 26 28 29 24 20 22 21 17 19 41 43 35 40 44 46 45 45
57 57 57 57 57 57 54 45 46 46 42 40 46 47 48 45 45 39 40 37 38 36 32 30 29 25 30 28 23 34 25 32 28 27 29 40 46 43 46 45 43 44 44 45
57 57 57 57 57 56 53 46 47 44 41 41 37 36 45 49 48 49 36 38 44 38 43 35 33 29 27 26 28 28 31 38 32 31 37 40 43 46 47 47 44 45 47 47
57 57 56 56 56 56 55 48 49 46 42 34 39 48 42 49 48 48 47 44 44 42 40 35 33 30 34 30 31 30 37 37 35 33 37 40 42 42 43 45 46 46 47 47
56 56 56 56 56 55 51 46 48 48 42 33 37 44 46 46 44 44 45 44 41 38 36 34 31 36 34 33 34 32 38 36 31 29 41 39 41 45 47 44 44 46 45 45
56 56 56 55 55 54 44 37 41 46 48 39 32 38 39 41 43 41 41 41 39 39 35 35 37 41 35 30 27 40 42 43 44 41 44 43 44 45 45 44 45 46 46 47
56 55 55 55 54 47 43 38 43 50 47 39 33 29 36 39 39 38 35 37 35 38 37 36 36 38 38 32 29 40 40 41 40 41 40 37 40 40 45 45 45 46 46 47
56 55 55 54 53 51 45 49 50 50 43 41 31 30 31 36 33 31 36 34 39 39 38 38 36 38 35 29 33 36 39 39 38 40 41 41 43 43 44 47 45 43 42 44
55 54 53 47 43 40 44 52 51 48 43 33 32 26 21 34 32 35 37 38 33 38 35 35 36 33 29 33 33 37 39 37 39 44 44 45 43 41 42 41 42 41 41 42
53 47 41 35 43 51 48 41 37 38 39 38 32 35 32 33 27 26 31 33 32 28 32 33 33 30 38 38 37 37 40 42 44 38 37 39 39 39 39 40 41 41 41 41
42 38 37 43 48 39 38 34 34 33 31 34 34 34 32 33 29 28 31 31 29 26 26 27 28 24 33 39 37 42 43 44 43 41 41 41 40 38 39 40 41 41 41 40
43 42 44 41 38 34 32 29 29 29 27 30 34 32 31 32 32 34 34 31 30 25 31 29 25 29 36 38 39 41 43 44 42 43 41 41 42 41 41 41 40 41 41 41
43 39 37 36 35 27 26 19 21 24 29 32 30 29 34 34 34 33 31 28 27 30 27 26 26 34 37 38 41 40 42 41 40 39 41 43 42 42 40 38 40 40 39 40
35 31 28 29 26 27 26 26 29 32 31 32 33 32 28 30 31 30 27 28 28 22 22 20 28 36 38 38 39 37 37 38 38 40 42 39 39 37 38 39 40 39 37 39
32 33 26 26 30 29 30 30 30 33 33 34 30 27 27 28 29 30 27 26 20 23 21 24 34 36 37 36 36 36 36 36 38 40 37 36 35 35 36 38 37 37 37 38
35 32 30 30 28 27 28 29 29 33 34 32 29 22 26 24 25 25 22 20 20 22 30 34 35 35 35 35 37 38 40 40 40 37 35 35 36 35 35 36 36 35 36 39
32 31 34 30 30 29 29 31 31 34 32 27 27 23 20 26 23 22 21 26 29 31 32 35 36 35 35 36 36 37 38 37 36 34 35 36 36 36 35 32 33 33 34 35

GFSNW_sfc_temp_015.txt.gz
Temp
58 58 59 59 58 55 51 48 45 55 55 45 37 39 43 49 47 47 46 47 44 41 41 40 41 40 41 46 47 40 45 39 32 37 47 50 47 42 41 29 28 31 27 26
58 57 58 58 57 53 45 42 42 51 52 38 35 39 43 45 44 42 42 42 43 43 40 36 40 40 45 45 43 40 43 35 27 34 39 44 40 41 41 39 34 27 24 30
58 57 57 57 57 55 45 42 41 42 39 36 36 35 37 39 44 42 43 41 41 38 36 40 36 38 44 44 44 50 47 37 33 26 31 36 32 36 38 36 26 28 30 33
58 57 57 57 56 54 46 38 34 36 33 35 34 35 36 36 35 40 41 37 37 34 31 32 33 38 39 42 46 43 40 30 34 35 37 36 35 34 35 33 34 27 32 33
58 58 57 57 56 54 41 38 37 34 32 34 33 35 33 35 36 37 36 35 36 36 31 34 31 35 35 35 40 40 39 30 34 29 35 35 32 35 36 36 37 37 37 36
58 58 57 56 55 50 39 38 39 38 34 31 32 32 34 35 37 39 41 38 35 33 36 40 41 40 40 39 36 35 33 31 29 23 33 32 26 34 37 38 40 39 32 38
58 58 58 57 55 49 41 39 38 33 33 33 34 37 37 36 36 35 39 39 34 39 45 42 40 38 38 38 37 38 33 30 31 25 27 18 36 44 42 38 41 42 41 39
58 58 58 57 56 53 43 41 39 34 31 33 34 36 36 36 36 35 36 39 42 43 39 32 28 31 32 35 37 37 36 31 26 21 23 30 34 39 39 36 34 42 38 41
58 57 58 57 55 53 43 41 41 37 32 32 38 35 35 31 30 32 36 41 43 41 34 30 16 21 27 26 32 37 34 35 29 27 20 17 35 43 45 42 28 41 42 41
58 57 58 57 56 54 45 42 43 38 32 36 37 33 33 35 33 33 34 36 36 38 31 28 22 23 30 24 25 28 29 28 23 25 22 28 38 42 44 26 31 42 42 42
57 57 57 57 56 55 49 48 48 41 33 36 40 41 36 37 34 33 34 33 33 31 29 27 26 23 29 26 29 29 27 23 23 25 20 18 42 42 32 39 43 43 43 43
57 57 57 56 57 56 53 45 49 48 42 38 44 45 47 45 42 36 39 34 33 34 31 30 29 26 27 27 23 33 26 32 28 29 28 40 44 43 45 44 43 43 43 44
57 56 56 56 56 56 52 47 47 45 41 37 37 37 43 45 46 49 34 35 40 38 38 34 32 27 30 26 27 29 33 38 30 30 37 40 42 45 46 45 43 45 45 44
57 57 56 56 56 55 53 47 46 46 41 33 34 45 41 47 44 44 46 42 41 39 38 35 32 29 34 29 32 31 36 38 33 32 37 40 41 43 43 44 45 45 46 45
57 56 56 56 55 55 49 44 44 47 42 31 33 41 42 43 42 41 43 41 38 34 34 33 30 36 34 34 33 31 38 35 31 31 38 37 37 42 44 43 43 44 44 43
56 56 56 55 55 53 43 37 42 47 48 36 29 37 37 40 41 40 38 39 37 35 33 33 34 38 35 30 29 36 41 42 41 36 41 39 40 43 45 43 43 44 44 44
56 56 55 55 54 45 40 37 43 47 44 36 32 32 36 37 38 37 36 37 34 33 32 34 34 35 37 32 28 39 37 39 40 42 42 38 42 40 44 45 45 45 44 44
56 55 55 54 53 51 45 45 49 48 42 41 31 32 32 36 33 33 34 33 33 35 36 35 34 36 35 29 33 36 38 39 39 42 43 43 44 44 44 44 43 40 40 41
55 54 52 47 44 41 42 51 51 48 42 33 32 27 22 34 32 31 31 33 31 34 33 34 35 34 29 33 34 36 37 36 37 41 42 42 41 41 41 40 39 38 38 40
54 48 41 36 42 51 49 42 39 40 40 38 32 36 27 31 27 24 24 26 31 28 28 32 32 32 36 36 40 40 39 40 41 37 35 37 36 37 37 37 38 38 39 40
44 39 38 42 49 40 36 31 33 34 32 35 35 35 32 33 28 27 29 29 33 26 27 26 29 25 32 38 40 42 42 43 41 41 40 38 37 36 36 36 38 39 40 38
44 43 43 41 37 33 29 29 31 31 29 30 32 32 36 31 33 32 33 29 30 21 30 28 26 29 37 39 40 40 40 39 38 38 37 37 38 38 38 38 37 36 38 38
43 40 36 34 32 28 26 23 26 27 31 29 31 30 31 33 34 33 30 25 23 30 23 25 28 34 37 38 37 36 37 37 38 37 38 38 37 39 37 35 37 38 37 37
37 34 28 29 26 27 28 30 30 33 31 32 32 31 32 33 30 32 26 29 27 22 21 22 27 31 34 34 35 34 34 37 36 35 35 35 35 35 36 37 36 35 34 35
34 33 26 27 30 29 30 31 31 32 34 33 30 28 29 29 26 28 26 24 21 22 21 23 30 32 31 31 33 35 35 34 34 34 34 34 34 34 35 36 36 35 34 34
35 32 29 29 27 26 27 30 30 33 32 31 31 24 26 26 28 23 22 20 20 23 27 30 31 29 34 34 36 35 36 35 34 35 34 34 35 34 34 35 35 35 34 33
32 31 34 30 29 29 32 32 31 33 32 27 27 18 21 26 19 19 24 23 25 31 29 29 29 34 35 36 36 36 35 35 35 34 35 35 36 35 35 33 34 34 35 34